Location: São Paulo
(23.5507°S, 46.6334°W)
Time: 14:56:47
(UTC-03:00)

Explorer 11/Cluster Stage 4 - All Passes

Search period start: 16 February 2026 00:00
Search period end: 26 February 2026 00:00
Orbit: 463 x 1177 km, 28.8° (Epoch: 16 February)

Date Brightness Start Highest point End Pass type
(mag) Time Alt. Az. Time Alt. Az. Time Alt. Az.
16 Feb - 01:30:52 10° WNW 01:38:14 85° SSW 01:46:09 10° ESE visible
16 Feb - 03:19:24 10° W 03:27:05 60° S 03:34:38 10° ESE visible
16 Feb - 05:08:13 10° WSW 05:16:02 67° S 05:23:07 10° E visible
16 Feb - 06:57:00 10° WSW 07:04:27 68° NNW 07:10:46 10° ENE daylight
16 Feb - 08:46:58 10° W 08:51:53 21° NW 08:56:11 10° NNE daylight
16 Feb - 21:37:08 10° NNE 21:38:29 11° NE 21:39:52 10° NE night (unlit)
16 Feb - 23:19:37 10° NW 23:25:39 43° NNE 23:32:39 10° E night (unlit)
17 Feb - 01:06:36 10° WNW 01:13:44 84° SSW 01:21:38 10° ESE visible
17 Feb - 02:55:01 10° W 03:02:34 59° S 03:10:15 10° ESE visible
17 Feb - 04:43:42 10° WSW 04:51:33 68° S 04:58:51 10° E visible
17 Feb - 06:32:24 10° WSW 06:40:01 68° NNW 06:46:37 10° ENE daylight
17 Feb - 08:22:21 10° W 08:27:33 22° NW 08:32:08 10° NNE daylight
17 Feb - 21:14:09 10° NE 21:14:11 10° NE 21:14:13 10° NE night (unlit)
17 Feb - 22:55:29 10° NW 23:01:15 42° NNE 23:08:02 10° E night (unlit)
18 Feb - 00:42:23 10° WNW 00:49:15 83° SSW 00:57:04 10° ESE visible
18 Feb - 02:30:39 10° W 02:38:03 59° S 02:45:47 10° ESE visible
18 Feb - 04:19:12 10° WSW 04:27:02 68° S 04:34:32 10° E visible
18 Feb - 06:07:49 10° WSW 06:15:33 67° NNW 06:22:24 10° ENE daylight
18 Feb - 07:57:43 10° W 08:03:10 23° NW 08:08:00 10° NNE daylight
18 Feb - 22:31:23 10° NW 22:36:51 42° NNE 22:43:25 10° E night (unlit)
19 Feb - 00:18:11 10° WNW 00:24:46 82° SSW 00:32:28 10° ESE night (unlit)
19 Feb - 02:06:20 10° W 02:13:32 59° S 02:21:17 10° ESE visible
19 Feb - 03:54:44 10° WSW 04:02:29 69° S 04:10:09 10° E visible
19 Feb - 05:43:15 10° WSW 05:51:02 67° NNW 05:58:08 10° ENE daylight
19 Feb - 07:33:06 10° W 07:38:45 23° NW 07:43:51 10° NNE daylight
19 Feb - 22:07:19 10° NW 22:12:30 41° NNE 22:18:46 10° E night (unlit)
19 Feb - 23:54:02 10° WNW 00:00:19 80° SSW 00:07:50 10° ESE night (unlit)
20 Feb - 01:42:03 10° W 01:49:01 58° S 01:56:43 10° ESE visible
20 Feb - 03:30:19 10° WSW 03:37:56 69° SSE 03:45:43 10° E visible
20 Feb - 05:18:43 10° WSW 05:26:30 66° NNW 05:33:48 10° ENE visible
20 Feb - 07:08:29 10° W 07:14:17 24° NW 07:19:36 10° NNE daylight
20 Feb - 21:43:15 10° NW 21:48:09 41° NNE 21:54:08 10° E night (unlit)
20 Feb - 23:29:54 10° WNW 23:35:53 79° SSW 23:43:10 10° ESE night (unlit)
21 Feb - 01:17:49 10° W 01:24:30 57° S 01:32:07 10° ESE visible
21 Feb - 03:05:55 10° WSW 03:13:23 70° SSE 03:21:13 10° E visible
21 Feb - 04:54:11 10° WSW 05:01:56 65° NNW 05:09:24 10° ENE visible
21 Feb - 06:43:53 10° W 06:49:47 24° NNW 06:55:18 10° NNE daylight
21 Feb - 21:19:14 10° NW 21:23:51 40° NNE 21:29:30 10° E night (unlit)
21 Feb - 23:05:49 10° WNW 23:11:30 78° SSW 23:18:30 10° ESE night (unlit)
22 Feb - 00:53:36 10° W 01:00:02 56° S 01:07:29 10° ESE visible
22 Feb - 02:41:34 10° WSW 02:48:49 70° SSE 02:56:40 10° E visible
22 Feb - 04:29:42 10° WSW 04:37:21 65° NNW 04:44:57 10° NE visible
22 Feb - 06:19:19 10° W 06:25:16 24° NNW 06:30:55 10° NNE daylight
22 Feb - 20:55:12 10° NW 20:59:34 39° NNE 21:04:54 10° E visible
22 Feb - 22:41:44 10° W 22:47:08 76° SSW 22:53:50 10° ESE night (unlit)
23 Feb - 00:29:25 10° WSW 00:35:33 55° S 00:42:48 10° ESE night (unlit)
23 Feb - 02:17:15 10° WSW 02:24:16 70° SSE 02:32:04 10° E visible
23 Feb - 04:05:16 10° WSW 04:12:45 64° NNW 04:20:26 10° NE visible
23 Feb - 05:54:47 10° W 06:00:43 24° NNW 06:06:29 10° NNE daylight
23 Feb - 20:31:11 10° NW 20:35:18 38° NNE 20:40:19 10° E visible
23 Feb - 22:17:41 10° W 22:22:47 74° SSW 22:29:09 10° ESE night (unlit)
24 Feb - 00:05:17 10° WSW 00:11:07 54° S 00:18:07 10° ESE night (unlit)
24 Feb - 01:52:58 10° WSW 01:59:43 70° SSE 02:07:25 10° E visible
24 Feb - 03:40:51 10° WSW 03:48:09 62° NNW 03:55:52 10° NE visible
24 Feb - 05:30:17 10° W 05:36:09 24° NNW 05:41:58 10° NNE visible
24 Feb - 20:07:09 10° NW 20:11:04 37° NNE 20:15:45 10° E visible
24 Feb - 21:53:39 10° W 21:58:28 72° SSW 22:04:30 10° ESE visible
24 Feb - 23:41:10 10° WSW 23:46:42 52° S 23:53:26 10° ESE night (unlit)
25 Feb - 01:28:43 10° WSW 01:35:12 70° SSE 01:42:45 10° E visible
25 Feb - 03:16:29 10° WSW 03:23:33 61° NNW 03:31:14 10° NE visible
25 Feb - 05:05:49 10° W 05:11:35 23° NNW 05:17:23 10° NNE visible
25 Feb - 19:43:07 10° NW 19:46:51 36° NNE 19:51:15 10° E visible
25 Feb - 21:29:37 10° W 21:34:10 70° SSW 21:39:52 10° ESE visible
25 Feb - 23:17:05 10° WSW 23:22:18 51° S 23:28:43 10° ESE night (unlit)
